Skip Page Navigation
NASA JPL Caltech
NASA Logo - Jet Propulsion Laboratory + View the NASA Portal
+ Near-Earth Object (NEO) Program
Search JPL
JPL Home Earth Solar System Stars & Galaxies Technology
JPL Solar System Dynamics
BODIES ORBITS EPHEMERIDES TOOLS PHYSICAL DATA DISCOVERY FAQ SITE MAP
JPL Small-Body Database Browser
Search: [ help ]  
9986 Hirokun (1996 NX)
Classification: Main-belt Asteroid          SPK-ID: 2009986
Ephemeris | Orbit Diagram | Orbital Elements | Physical Parameters | Discovery Circumstances | Close-Approach Data ]

[ show orbit diagram ]
Orbital Elements at Epoch 2457000.5 (2014-Dec-09.0) TDB
Reference: JPL 13 (heliocentric ecliptic J2000)
 Element Value Uncertainty (1-sigma)   Units 
e .05708889231029225 6.0538e-08  
a 2.571994767781828 2.1989e-08 AU
q 2.425162435461297 1.532e-07 AU
i 14.00362883942737 6.5088e-06 deg
node 271.2726228008573 2.6134e-05 deg
peri 316.06179751116 6.5927e-05 deg
M 219.5903943865455 6.1311e-05 deg
tp 2457588.121756118368
(2016-Jul-18.62175612)
0.00025629 JED
period 1506.619374638723
4.12
1.9321e-05
5.29e-08
d
yr
n .2389455532432174 3.0642e-09 deg/d
Q 2.718827100102361 2.3244e-08 AU
  Orbit Determination Parameters
   # obs. used (total)      1065  
   data-arc span      8799 days (24.09 yr)  
   first obs. used      1991-02-11  
   last obs. used      2015-03-16  
   planetary ephem.      DE431  
   SB-pert. ephem.      SB431-BIG16  
   condition code      0  
   fit RMS      .47702  
   data source      ORB  
   producer      Otto Matic  
   solution date      2015-Apr-07 16:36:38  

Additional Information
 Earth MOID = 1.42939 AU 
 T_jup = 3.385 
[ show covariance matrix ]

Ephemeris | Orbit Diagram | Orbital Elements | Physical Parameters | Discovery Circumstances | Close-Approach Data ]

Physical Parameter Table
Parameter Symbol Value Units Sigma Reference Notes
absolute magnitude H 12.4 mag n/a MPO267747  

9986 Hirokun           Discovered 1996 July 12 by Y. Shimizu and T. Urata at Nachi-Katsuura.
Hirokun is a nickname for Hiroshi Fukazawa, who was the fiancé of Mizuho Urata (1972-2004), daughter of the second discoverer.
NOTE: some special characters may not display properly (any characters within {} are an attempt to place the proper accent above a character)
Reference: 20050721/MPCPages.arcLast Updated: 2005-07-21

[ show close-approach data ]
Alternate Designations
 1996 NX = 1991 CM2 = 1991 GM1 
Ephemeris | Orbit Diagram | Orbital Elements | Physical Parameters | Discovery Circumstances | Close-Approach Data ]
ABOUT SSD CREDITS/AWARDS PRIVACY/COPYRIGHT GLOSSARY LINKS
FirstGov 2015-May-04 10:06 UT
(server date/time)  
NASA Home Page
Site Manager:   Ryan S. Park
Webmaster  Alan B. Chamberlin